Rotterdam, Netherlands

1:10 AM CEST on May 01, 2017 (GMT +0200)
Rotterdam

Weather History for EHRD - June, 2013

Change the Weather History Date:

Tuesday, June 4, 2013

  Actual Average Record
Temperature  
Mean Temperature 55 °F -  
Max Temperature 66 °F 66 °F 82 °F (2011)
Min Temperature 44 °F 51 °F 42 °F (1997)
Degree Days  
Heating Degree Days 10    
Growing Degree Days 5 (Base 50)    
Moisture  
Dew Point 48 °F    
Average Humidity 76    
Maximum Humidity 94    
Minimum Humidity 55    
Precipitation  
Precipitation 0.00 in - - ()
Sea Level Pressure  
Sea Level Pressure 30.26 in    
Wind  
Wind Speed 6 mph ()    
Max Wind Speed 12 mph    
Max Gust Speed -    
Visibility 6.8 miles    
Events      
Averages and records for this station are not official NWS values.
T = Trace of Precipitation, MM = Missing Value Source: Averaged Metar Reports

Daily Weather History Graph

Daily Weather History Graph

Search for Another Location

Airport or City:

Trip Planner

Search our weather history database for the weather conditions in past years. The results will help you decide how hot, cold, wet, or windy it might be!

Date:

Astronomy

Jun. 04, 2013 Rise Set
Actual Time 5:26 AM CEST 9:55 PM CEST
Civil Twilight 4:39 AM CEST 10:42 PM CEST
Nautical Twilight 3:27 AM CEST 11:54 PM CEST
Astronomical Twilight 2:12 AM CEST 1:08 AM CEST
Moon 3:15 AM CEST (6/4) 5:45 PM CEST (6/4)
Length of Visible Light 18h 03m
Length of Day
16h 29m
Waning Crescent, 16% of the Moon is Illuminated
Jun 4
Waning Crescent
Jun 8
New
Jun 16
First Quarter
Jun 23
Full
Jun 30
Last Quarter

Hourly Weather History & Observations

Time (CEST) Temp. Windchill Dew Point Humidity Pressure Visibility Wind Dir Wind Speed Gust Speed Precip Events Conditions
12:25 AM 46.4 °F 44.3 °F 42.8 °F 87% 30.39 in 6.2 mi North 4.6 mph - N/A   Unknown
12:55 AM 44.6 °F 42.2 °F 42.8 °F 93% 30.39 in 6.2 mi North 4.6 mph - N/A   Unknown
1:25 AM 44.6 °F 42.2 °F 42.8 °F 93% 30.39 in 6.2 mi North 4.6 mph - N/A   Unknown
1:55 AM 44.6 °F 42.2 °F 42.8 °F 93% 30.36 in 6.2 mi North 4.6 mph - N/A   Unknown
2:00 AM 45 °F - 42 °F 86% 30.38 in 13 mi North 4.5 mph - -   Partly Cloudy
2:25 AM 44.6 °F 43.1 °F 42.8 °F 93% 30.36 in 6.2 mi North 3.5 mph - N/A   Unknown
2:55 AM 44.6 °F 42.2 °F 42.8 °F 93% 30.36 in 6.2 mi North 4.6 mph - N/A   Unknown
3:25 AM 48.2 °F - 44.6 °F 87% 30.36 in 6.2 mi NNE 6.9 mph - N/A   Mostly Cloudy
3:55 AM 48.2 °F - 42.8 °F 82% 30.33 in 6.2 mi NNE 8.1 mph - N/A   Overcast
4:25 AM 48.2 °F - 42.8 °F 82% 30.33 in 6.2 mi North 5.8 mph - N/A   Overcast
4:55 AM 48.2 °F - 44.6 °F 87% 30.33 in 6.2 mi North 5.8 mph - N/A   Overcast
5:00 AM 49 °F - 44 °F 76% 30.33 in 14 mi North 4.5 mph - -   Overcast
5:25 AM 48.2 °F - 44.6 °F 87% 30.33 in 6.2 mi North 5.8 mph - N/A   Overcast
5:55 AM 48.2 °F - 42.8 °F 82% 30.30 in 6.2 mi North 5.8 mph - N/A   Overcast
6:25 AM 48.2 °F - 42.8 °F 82% 30.30 in 6.2 mi North 4.6 mph - N/A   Mostly Cloudy
6:55 AM 48.2 °F - 44.6 °F 87% 30.30 in 6.2 mi North 5.8 mph - N/A   Overcast
7:25 AM 50.0 °F - 44.6 °F 82% 30.30 in 6.2 mi North 8.1 mph - N/A   Overcast
7:55 AM 50.0 °F - 44.6 °F 82% 30.30 in 6.2 mi North 8.1 mph - N/A   Mostly Cloudy
8:00 AM 51 °F - 45 °F 74% 30.31 in 9 mi NNE 11.2 mph - -   Partly Cloudy
8:25 AM 51.8 °F - 46.4 °F 82% 30.30 in 6.2 mi NNE 9.2 mph - N/A   Mostly Cloudy
8:55 AM 51.8 °F - 46.4 °F 82% 30.30 in 6.2 mi NNE 9.2 mph - N/A   Overcast
9:25 AM 53.6 °F - 46.4 °F 77% 30.30 in 6.2 mi NE 9.2 mph - N/A   Mostly Cloudy
9:55 AM 55.4 °F - 48.2 °F 77% 30.30 in 6.2 mi NNE 6.9 mph - N/A   Mostly Cloudy
10:25 AM 57.2 °F - 48.2 °F 72% 30.27 in 6.2 mi NNE 8.1 mph - N/A   Partly Cloudy
10:55 AM 57.2 °F - 48.2 °F 72% 30.27 in 6.2 mi North 9.2 mph - N/A   Partly Cloudy
11:00 AM 58 °F - 48 °F 61% 30.29 in 11 mi North 8.9 mph - -   Partly Cloudy
11:25 AM 60.8 °F - 50.0 °F 68% 30.27 in 6.2 mi NNE 9.2 mph - N/A   Partly Cloudy
11:55 AM 60.8 °F - 50.0 °F 68% 30.27 in 6.2 mi NNW 6.9 mph - N/A   Partly Cloudy
12:25 PM 62.6 °F - 50.0 °F 63% 30.27 in 6.2 mi North 9.2 mph - N/A   Partly Cloudy
12:55 PM 62.6 °F - 50.0 °F 63% 30.27 in 6.2 mi North 6.9 mph - N/A   Scattered Clouds
1:25 PM 62.6 °F - 51.8 °F 68% 30.24 in 6.2 mi North 6.9 mph - N/A   Partly Cloudy
1:55 PM 64.4 °F - 51.8 °F 64% 30.24 in 6.2 mi NNW 8.1 mph - N/A   Partly Cloudy
2:00 PM 64 °F - 52 °F 57% 30.25 in 10 mi NNW 11.2 mph - -   Partly Cloudy
2:25 PM 64.4 °F - 53.6 °F 68% 30.24 in 6.2 mi NNW 9.2 mph - N/A   Unknown
2:55 PM 64.4 °F - 53.6 °F 68% 30.24 in 6.2 mi NNW 9.2 mph - N/A   Unknown
3:25 PM 64.4 °F - 53.6 °F 68% 30.21 in 6.2 mi NNW 10.4 mph - N/A   Unknown
3:55 PM 66.2 °F - 53.6 °F 64% 30.21 in 6.2 mi NNW 10.4 mph - N/A   Unknown
4:25 PM 64.4 °F - 53.6 °F 68% 30.21 in 6.2 mi NNW 11.5 mph - N/A   Unknown
4:55 PM 66.2 °F - 53.6 °F 64% 30.21 in 6.2 mi NNW 11.5 mph - N/A   Unknown
5:00 PM 66 °F - 54 °F 55% 30.21 in 9 mi NNW 11.2 mph - -  
5:25 PM 66.2 °F - 53.6 °F 64% 30.18 in 6.2 mi NNW 11.5 mph - N/A   Unknown
5:55 PM 64.4 °F - 53.6 °F 68% 30.18 in 6.2 mi NNW 10.4 mph - N/A   Unknown
6:25 PM 64.4 °F - 53.6 °F 68% 30.18 in 6.2 mi NNW 10.4 mph - N/A   Unknown
6:55 PM 64.4 °F - 53.6 °F 68% 30.18 in 6.2 mi NNW 10.4 mph - N/A   Unknown
7:25 PM 62.6 °F - 51.8 °F 68% 30.18 in 6.2 mi NNW 8.1 mph - N/A   Unknown
7:55 PM 62.6 °F - 51.8 °F 68% 30.15 in 6.2 mi North 9.2 mph - N/A   Unknown
8:00 PM 62 °F - 52 °F 62% 30.18 in 11 mi North 8.9 mph - -   Partly Cloudy
8:25 PM 60.8 °F - 51.8 °F 72% 30.15 in 6.2 mi North 9.2 mph - N/A   Unknown
8:55 PM 59.0 °F - 51.8 °F 77% 30.15 in 6.2 mi North 9.2 mph - N/A   Unknown
9:25 PM 57.2 °F - 50.0 °F 77% 30.15 in 6.2 mi North 6.9 mph - N/A   Unknown
9:55 PM 55.4 °F - 50.0 °F 82% 30.15 in 6.2 mi North 4.6 mph - N/A   Unknown
10:25 PM 53.6 °F - 50.0 °F 88% 30.18 in 6.2 mi North 4.6 mph - N/A   Unknown
10:55 PM 53.6 °F - 50.0 °F 88% 30.18 in 6.2 mi North 4.6 mph - N/A   Unknown
11:00 PM 52 °F - 49 °F 88% 30.19 in 7 mi NNW 4.5 mph - -  
11:25 PM 51.8 °F - 50.0 °F 94% 30.18 in 6.2 mi North 4.6 mph - N/A   Unknown
11:55 PM 53.6 °F - 48.2 °F 82% 30.18 in 6.2 mi NNE 5.8 mph - N/A   Unknown